Voltar ao catálogo

STARLINK-36871

AtivoComunicaçõesSSO
NORAD 68023·PAYLOAD·🇺🇸 United States

Lançado Mar 1, 2026 de Vandenberg Space Force Base

Loading…

Próximas Passagens (próximas 24 horas)

TLE

AtualizadoSource: CelesTrak SupGP

Época: Sep 14, 2026, 21:38 UTC

1 68023C 26040J   26257.90187500 -.00051248  00000+0 -15909-2 0  2577
2 68023  97.2854 205.2851 0001830  91.4828  52.5563 15.33462788    17

Acompanhe STARLINK-36871 em tempo real com AllMySat

Download on the App Store